SPACEBEE-98 (48949 NORAD) Tracking and Keplerian Element Data

This shows tracking and keplerian element data for the satellite.

Feedback or suggestion? Click here.




ElementValue
Catalog48949
NameSPACEBEE-98
Epoch Orbit1389
Epoch Day268.61951574
Epoch Year2021
RAAN36.289
Inclination97.52
Eccentricity0.0016353
Argument of Perigee299.7078
Mean Anonmoly60.2526
Mean Motion15.14604907
Decay Rate7.413E-05
L11 48949U 21059BY 21268.61951574 .00007413 00000-0 40366-3 0 9995
L22 48949 97.5200 36.2890 0016353 299.7078 60.2526 15.14604907 13896

Live tracking and technical data element details for SPACEBEE-98 (NORAD 48949). SPACEBEE-98 can be tracked NOW for your location showing map with azimuth and elevation plus other details from your city location.

Track the satellite on the map from your city or location and see movement details for azimuth, elevation, latitude, longitude, range, height, and movement on the map or in text.







IsCatalogInMostPopularTable: catalog: 48949, numindb: 18
Update: records affected: 1



GetName: 48949 SPACEBEE-98

Hit Count: updated at: Sun, 26 Sep 2021 16:14:39 GMT